sat.trackr.live / text

‹ back to catalog

FLOCK 4G-22

NORAD 62645 · 2025-009AN

PAYLOAD ACTIVE UNKNOWN

§ Identity

Operator
Country
US
Launch date
2025-01-14
Launch site
AFWTR
Launch vehicle
Mass (kg)
RCS (m²)

Purposes: earth_obs

External: N2YO · Heavens-Above · Gunter

§ Orbital elements

Epoch: 2026-05-25T04:14:34.178208Z

Period
94.20 min
Inclination
97.4008°
Eccentricity
0.0002950
Mean motion
15.28738889 rev/d
Perigee alt
477.6 km
Apogee alt
481.6 km
Semi-major
6,857.7 km
B*
3.6835e-4
RAAN
227.3117°
Arg perigee
53.3758°
Mean anomaly
306.7753°
Rev number
7,540

§ Raw data

FLOCK 4G-221 62645U 25009AN  26145.17678447  .00010221  00000+0  36835-3 0  99942 62645  97.4008 227.3117 0002950  53.3758 306.7753 15.28738889 75409

JSON: /api/v1/satellites/62645 · /tle

For live sub-satellite position, see the globe view (requires WebGL).

§ Visibility from observer

Set your observer location to see the next 7 days of passes ≥ 10°. The values pass through the URL so the page stays shareable.

No JS? Fill the form by hand. The geolocation button needs JavaScript.